Flag for Germany Weather past 2 weeks in Munich, Bavaria, Germany

Now
50 °F

Light rain. Partly cloudy.


Feels Like: 42 °F
Forecast: 41 / 52 °F
Wind: 33 mph from Southwest

Location: Munich / Franz Josef Strauss Airport

Current Time: Mar 30, 2015 at 2:50:36 AM

Latest Report: Mar 30, 2015 at 2:20 AM


Visibility: N/A

Pressure: 29.53 "Hg

Humidity: 76%

Dew point: 43 °F

Location of MunichLocation

Historic Weather in Munich — Graph

°F

Munich temperature yesterday

Maximum temperature yesterday: 55 °F (at 12:20 PM)
Minimum temperature yesterday: 45 °F (at 12:20 AM)
Average temperature yesterday: 50 °F

Past Weeks' High & Low Weather Summary

 TemperatureHumidityPressure
High63 °F (Mar 17, 1:20 PM)100% (Mar 15, 5:50 AM)30.27 "Hg (Mar 15, 5:50 AM)
Low23 °F (Mar 20, 5:20 AM)30% (Mar 17, 3:20 PM)29.56 "Hg (Mar 25, 1:50 PM)
Average43 °F72%30.02 "Hg
* Reported Mar 15 12:20 AM — Mar 30 1:20 AM, Munich, Weather by CustomWeather, © 2015

Note: Actual official high and low records may vary slightly from our data, if they occured in-between our weather recording intervals... More about our weather records

Advertising

Munich weather history for previous 24 hours

 ConditionsComfort  
Time TempWeatherWind HumidityBarometerVisibility
1:20 AM
Mon, Mar 30
50 °FLight rain. Partly cloudy.32 mph76%29.56 "HgN/A
12:50 AM48 °FPartly cloudy.37 mph82%29.56 "HgN/A
12:20 AM48 °FLight rain. Partly cloudy.32 mph87%29.59 "HgN/A
11:50 PM
Sun, Mar 29
50 °FLight rain. Passing clouds.35 mph82%29.59 "HgN/A
11:20 PM50 °FLight rain. Passing clouds.37 mph82%29.59 "HgN/A
10:50 PM50 °FLight rain. Passing clouds.32 mph82%29.59 "HgN/A
10:20 PM50 °FLight rain. Passing clouds.31 mph82%29.59 "HgN/A
9:50 PM52 °FLight rain. Partly cloudy.31 mph72%29.62 "HgN/A
9:20 PM52 °FPartly cloudy.29 mph72%29.62 "HgN/A
8:50 PM50 °FLight rain. Partly cloudy.23 mph76%29.65 "HgN/A
8:20 PM50 °FBroken clouds.26 mph76%29.65 "HgN/A
7:50 PM50 °FMore clouds than sun.26 mph76%29.65 "HgN/A
7:20 PM50 °FPartly sunny.29 mph76%29.68 "HgN/A
6:50 PM50 °FLight rain. Partly sunny.28 mph76%29.68 "HgN/A
6:20 PM48 °FLight rain. Partly sunny.28 mph82%29.71 "HgN/A
5:50 PM50 °FLight rain. Mostly cloudy.29 mph76%29.71 "HgN/A
5:20 PM48 °FLight rain. Mostly cloudy.24 mph87%29.71 "HgN/A
4:50 PM50 °FLight rain. Mostly cloudy.24 mph88%29.74 "HgN/A
4:20 PM50 °FLight rain. Mostly cloudy.23 mph82%29.74 "HgN/A
3:50 PM50 °FLight rain. More clouds than sun.28 mph82%29.74 "HgN/A
3:20 PM54 °FLight rain. Broken clouds.29 mph67%29.74 "HgN/A
2:50 PM54 °FLight rain. Partly sunny.26 mph67%29.77 "HgN/A
2:20 PM55 °FPartly sunny.33 mph59%29.77 "HgN/A
1:50 PM55 °FBroken clouds.23 mph59%29.77 "HgN/A
1:20 PM55 °FPartly sunny.28 mph59%29.77 "HgN/A
12:50 PM54 °FPartly sunny.31 mph63%29.80 "HgN/A
12:20 PM55 °FPartly sunny.30 mph59%29.80 "HgN/A
11:50 AM54 °FBroken clouds.30 mph67%29.83 "HgN/A
11:20 AM54 °FBroken clouds.29 mph67%29.83 "HgN/A
10:50 AM54 °FBroken clouds.30 mph67%29.86 "HgN/A
10:20 AM52 °FPartly sunny.26 mph72%29.86 "HgN/A
9:50 AM52 °FBroken clouds.26 mph72%29.86 "HgN/A
9:20 AM52 °FBroken clouds.23 mph72%29.89 "HgN/A
8:50 AM50 °FBroken clouds.23 mph76%29.89 "HgN/A
8:20 AM50 °FBroken clouds.23 mph76%29.89 "HgN/A
7:50 AM48 °FPassing clouds.21 mph82%29.89 "HgN/A
7:20 AM48 °FPartly cloudy.17 mph82%29.92 "HgN/A
6:50 AM46 °FClear.13 mph87%29.92 "Hg10 mi
6:20 AM46 °FClear.14 mph87%29.92 "Hg10 mi
5:50 AM46 °FOvercast.15 mph87%29.95 "HgN/A
5:20 AM46 °FPartly cloudy.15 mph87%29.95 "HgN/A
4:50 AM45 °FLight rain. Partly cloudy.17 mph93%29.95 "HgN/A
4:20 AM45 °FLight rain. Partly cloudy.15 mph93%29.98 "HgN/A
3:50 AM45 °FLight rain. Overcast.14 mph93%29.98 "HgN/A
3:20 AM45 °FQuite cool.13 mph93%29.98 "HgN/A
Weather by CustomWeather, © 2015

See weather overviewHow to use our weather pages